GW3247 Weather Reports


Display with metric or nautical units.
time (UTC)temp
F
wind
direction
speed
MPH
gust
MPH
rain 1hr
in
rain 24hr
in
rain mn
in
humidity
%
barometer
mb
20260504234543 49 348 13.0 19.0 0.00 0.08 0.00 80 1011.7
20260504233038 50 341 13.0 17.0 0.00 0.08 0.00 79 1011.9
20260504231553 50 356 13.0 17.0 0.00 0.08 0.00 80 1011.7
20260504230033 50 350 13.0 16.0 0.00 0.08 0.00 80 1011.8
20260504224537 50 1 13.0 18.0 0.00 0.17 0.00 80 1012.0
20260504223030 50 344 13.0 16.0 0.00 0.17 0.00 79 1011.8
20260504221530 50 357 13.0 16.0 0.00 0.17 0.00 80 1011.9
20260504220030 50 37 14.0 18.0 0.00 0.17 0.00 80 1011.9
20260504214524 51 350 14.0 17.0 0.00 0.24 0.17 80 1012.0
20260504213023 51 348 12.0 14.0 0.00 0.24 0.17 80 1012.1
20260504211522 51 354 12.0 15.0 0.00 0.24 0.17 80 1012.2
20260504210020 51 332 6.0 13.0 0.00 0.24 0.17 81 1012.1
20260504204520 51 316 5.0 9.0 0.00 0.33 0.17 80 1012.1
20260504203023 51 343 5.0 8.0 0.00 0.33 0.17 80 1012.1
20260504201517 52 339 5.0 8.0 0.00 0.33 0.17 80 1012.1
20260504200014 52 30 6.0 10.0 0.00 0.33 0.17 79 1012.0
20260504194525 53 352 8.0 11.0 0.00 0.33 0.17 78 1011.8
20260504193015 53 342 9.0 12.0 0.00 0.33 0.17 77 1011.7
20260504191509 53 12 9.0 11.0 0.00 0.33 0.17 76 1011.6
20260504190009 53 7 9.0 12.0 0.00 0.33 0.17 75 1011.5
20260504184511 53 341 9.0 13.0 0.00 0.33 0.17 75 1011.3
20260504183007 54 315 11.0 13.0 0.00 0.33 0.17 73 1011.3
20260504181506 54 9 10.0 14.0 0.00 0.33 0.17 72 1011.4
20260504180012 55 309 10.0 14.0 0.00 0.33 0.17 70 1011.3
20260504174505 55 318 10.0 19.0 0.00 0.33 0.17 63 1011.1
20260504173012 56 310 12.0 17.0 0.00 0.33 0.17 57 1011.1
20260504171503 56 308 9.0 15.0 0.00 0.33 0.17 57 1011.1
20260504081508 51 327 14.0 19.0 0.00 0.33 0.17 91 1009.1
20260504050125 50 11 5.0 8.0 0.00 0.33 0.17 93 1006.4
20260504044558 50 49 7.0 11.0 0.00 0.33 0.17 93 1006.4
20260504043059 50 24 9.0 12.0 0.00 0.33 0.17 93 1006.2
20260504041550 50 26 9.0 12.0 0.00 0.33 0.17 92 1006.1
20260504040046 52 352 10.0 13.0 0.00 0.33 0.17 91 1006.0
20260504034550 53 250 4.0 10.0 0.00 0.33 0.17 93 1005.8
20260504033045 53 294 1.0 6.0 0.00 0.33 0.17 93 1005.8
20260504031558 53 271 1.0 5.0 0.01 0.33 0.17 94 1005.9
20260504030042 52 228 0.0 3.0 0.01 0.33 0.17 93 1006.0
20260504024542 52 213 1.0 3.0 0.01 0.33 0.17 93 1006.1
20260504023038 52 152 0.0 0.0 0.02 0.33 0.17 93 1006.1
20260504021536 52 152 0.0 0.0 0.02 0.32 0.16 93 1006.2
20260504020040 52 153 0.0 0.0 0.02 0.32 0.16 93 1006.2
20260504014536 52 143 0.0 0.0 0.02 0.32 0.16 93 1006.2
20260504013036 52 86 0.0 2.0 0.02 0.31 0.15 93 1006.3
20260504011533 52 65 2.0 4.0 0.02 0.31 0.14 93 1006.4
20260504010031 52 63 3.0 5.0 0.01 0.30 0.13 93 1006.3
20260504004530 52 66 4.0 5.0 0.01 0.30 0.13 93 1006.4
20260504003027 52 49 3.0 6.0 0.01 0.30 0.13 92 1006.4
20260504001525 52 49 2.0 7.0 0.02 0.28 0.13 92 1006.5
20260504000024 53 53 3.0 7.0 0.04 0.28 0.13 92 1006.6